Date String (YYYY-MM-DD hh:mm:ss) UTC,Instrument flags,absolute air pressure of the measurement (hPa),sample flow rate (lpm),inlet stack bypass flow (lpm),air temperature of the measurement (°C),ambient temperature measured by the external sensor (°C),aerosol sample conditioner tube jacket temperature (°C),OPC LED temperature (°C),internal box temperature (°C),relative humidity of the measurement (%),span deviation,mass concentration of particles derived from Lorenz-Mie calculation of OPC scattering (μg/m³),mass concentration of particles derived from Lorenz-Mie calculation of OPC scattering (μg/m³),mass concentration of particles derived from Lorenz-Mie calculation of OPC scattering (μg/m³)
DateTimeUTC,F1_M11,P_M11,Q1_M11,Q2_M11,T1_M11,T2_M11,T3_M11,T4_M11,T5_M11,U1_M11,ZSPAN_M11,X0_M11,X2_M11,X1_M11
2023-06-07 20:00:00,SystemResetWarning,0828.8,5.00,000.00,029.2,027.6,000.0,037.7,030.9,29.5,0002.6,0011.36,0005.01,0004.41
2023-06-07 20:01:00,SystemResetWarning,0828.8,5.00,000.00,029.3,027.8,000.0,037.7,031.0,30.4,0002.4,0010.32,0005.18,0004.59
2023-06-07 20:02:00,SystemResetWarning,0828.8,5.00,000.00,029.3,027.8,000.0,037.7,031.0,29.4,0002.2,0009.94,0005.30,0004.71
2023-06-07 20:03:00,SystemResetWarning,0828.7,4.98,000.00,029.3,026.2,000.0,037.7,031.0,29.1,0002.3,0009.80,0005.41,0004.79
2023-06-07 20:04:00,SystemResetWarning,0828.8,5.01,000.00,029.3,024.7,000.0,037.6,030.8,30.0,0002.3,0009.65,0005.49,0004.87
2023-06-07 20:05:00,SystemResetWarning,0828.8,5.00,000.00,029.3,024.5,000.0,037.6,030.7,30.2,0002.0,0009.57,0005.51,0004.92
2023-06-07 20:06:00,SystemResetWarning,0828.8,5.01,000.00,029.1,024.9,000.0,037.6,030.6,30.9,0001.6,0009.56,0005.53,0004.95
2023-06-07 20:07:00,SystemResetWarning,0828.7,5.00,000.00,029.1,025.3,000.0,037.6,030.6,30.6,0001.6,0009.15,0005.44,0004.90
2023-06-07 20:08:00,SystemResetWarning,0828.7,5.00,000.00,029.1,025.8,000.0,037.6,030.7,29.8,0001.5,0008.80,0005.33,0004.84
2023-06-07 20:09:00,SystemResetWarning,0828.7,5.00,000.00,029.1,026.3,000.0,037.6,030.7,28.6,0001.4,0008.67,0005.25,0004.79
2023-06-07 20:10:00,SystemResetWarning,0828.8,5.00,000.00,029.1,026.7,000.0,037.6,030.8,29.0,0001.0,0008.62,0005.17,0004.69
2023-06-07 20:11:00,SystemResetWarning,0828.7,5.00,000.00,029.1,027.0,000.0,037.6,030.8,29.2,0000.0,0008.54,0005.02,0004.54
2023-06-07 20:12:00,SystemResetWarning,0828.8,5.00,000.00,029.2,027.3,000.0,037.6,030.9,29.2,0000.0,0008.45,0004.88,0004.39
2023-06-07 20:13:00,SystemResetWarning,0828.7,5.00,000.00,029.2,027.5,000.0,037.7,031.0,27.7,0000.0,0008.33,0004.80,0004.29
2023-06-07 20:14:00,SystemResetWarning,0828.7,5.00,000.00,029.2,027.7,000.0,037.7,031.0,27.8,0000.0,0008.10,0004.71,0004.21
2023-06-07 20:15:00,SystemResetWarning,0828.7,5.00,000.00,029.3,027.9,000.0,037.7,031.0,28.1,0000.0,0008.05,0004.57,0004.09
2023-06-07 20:16:00,SystemResetWarning,0828.7,4.98,000.00,029.3,026.8,000.0,037.7,031.0,29.3,0000.0,0008.29,0004.45,0003.97
2023-06-07 20:17:00,SystemResetWarning,0828.6,5.01,000.00,029.3,024.9,000.0,037.6,030.9,27.0,0000.0,0008.17,0004.34,0003.88
2023-06-07 20:18:00,SystemResetWarning,0828.6,5.01,000.00,029.3,024.4,000.0,037.6,030.8,26.7,0000.0,0008.14,0004.30,0003.83
2023-06-07 20:19:00,SystemResetWarning,0828.6,5.01,000.00,029.2,024.7,000.0,037.6,030.7,26.5,0000.0,0008.27,0004.27,0003.81
2023-06-07 20:20:00,SystemResetWarning,0828.6,4.99,000.00,029.1,025.1,000.0,037.6,030.6,26.7,0000.0,0008.38,0004.26,0003.77
2023-06-07 20:21:00,SystemResetWarning,0828.6,5.00,000.00,029.1,025.7,000.0,037.6,030.6,27.6,0000.0,0008.42,0004.24,0003.75
2023-06-07 20:22:00,SystemResetWarning,0828.6,5.00,000.00,029.1,026.1,000.0,037.6,030.7,26.9,0000.0,0008.49,0004.27,0003.74
2023-06-07 20:23:00,SystemResetWarning,0828.6,5.02,000.00,029.1,026.5,000.0,037.6,030.8,27.5,0000.0,0008.41,0004.25,0003.72
2023-06-07 20:24:00,SystemResetWarning,0828.6,5.00,000.00,029.1,026.9,000.0,037.6,030.8,27.3,0000.0,0008.69,0004.21,0003.68
2023-06-07 20:25:00,SystemResetWarning,0828.6,5.00,000.00,029.2,027.2,000.0,037.6,030.9,27.0,0000.0,0009.32,0004.18,0003.64
2023-06-07 20:26:00,SystemResetWarning,0828.6,5.00,000.00,029.2,027.5,000.0,037.6,030.9,27.1,0000.0,0009.54,0004.17,0003.61
2023-06-07 20:27:00,SystemResetWarning,0828.6,5.00,000.00,029.2,027.7,000.0,037.7,030.9,26.3,0000.0,0009.21,0004.14,0003.59
2023-06-07 20:28:00,SystemResetWarning,0828.6,5.00,000.00,029.3,027.8,000.0,037.7,031.0,27.2,0000.0,0009.39,0004.15,0003.57
2023-06-07 20:29:00,SystemResetWarning,0828.6,4.98,000.00,029.3,026.4,000.0,037.6,030.9,28.1,0000.0,0009.51,0004.16,0003.58
2023-06-07 20:30:00,SystemResetWarning,0828.6,5.01,000.00,029.3,025.3,000.0,037.6,030.9,29.4,0000.0,0009.48,0004.20,0003.61
2023-06-07 20:31:00,SystemResetWarning,0828.6,5.01,000.00,029.2,025.5,000.0,037.6,030.8,27.8,0000.0,0009.32,0004.22,0003.63
2023-06-07 20:32:00,SystemResetWarning,0828.5,5.00,000.00,029.2,025.8,000.0,037.6,030.7,29.4,0000.0,0009.46,0004.24,0003.67
2023-06-07 20:33:00,SystemResetWarning,0828.5,5.00,000.00,029.2,026.2,000.0,037.6,030.8,28.1,0000.0,0009.85,0004.24,0003.68
2023-06-07 20:34:00,SystemResetWarning,0828.5,5.01,000.00,029.2,026.6,000.0,037.6,030.8,28.8,0000.0,0010.25,0004.26,0003.73
2023-06-07 20:35:00,SystemResetWarning,0828.5,5.00,000.00,029.2,027.0,000.0,037.7,030.8,28.9,0000.0,0010.97,0004.35,0003.81
2023-06-07 20:36:00,SystemResetWarning,0828.5,5.00,000.00,029.2,027.3,000.0,037.7,030.8,29.8,0000.0,0010.99,0004.48,0003.90
2023-06-07 20:37:00,SystemResetWarning,0828.6,5.01,000.00,029.3,027.6,000.0,037.7,030.9,30.2,0000.0,0010.98,0004.52,0003.95
2023-06-07 20:38:00,SystemResetWarning,0828.5,4.99,000.00,029.3,027.7,000.0,037.7,031.0,28.6,0000.0,0011.32,0004.55,0004.00
2023-06-07 20:39:00,SystemResetWarning,0828.4,4.99,000.00,029.3,026.6,000.0,037.7,031.0,28.7,0000.0,0011.09,0004.62,0004.08
2023-06-07 20:40:00,SystemResetWarning,0828.5,5.01,000.00,029.3,025.4,000.0,037.6,031.0,29.7,0000.0,0011.26,0004.68,0004.12
2023-06-07 20:41:00,SystemResetWarning,0828.4,5.00,000.00,029.3,025.6,000.0,037.6,030.9,29.0,0000.0,0011.42,0004.72,0004.16
2023-06-07 20:42:00,SystemResetWarning,0828.4,5.01,000.00,029.2,025.9,000.0,037.6,030.7,29.6,0000.0,0011.58,0004.80,0004.20
2023-06-07 20:43:00,SystemResetWarning,0828.4,5.00,000.00,029.2,026.3,000.0,037.7,030.8,30.4,0000.0,0011.80,0004.80,0004.21
2023-06-07 20:44:00,SystemResetWarning,0828.4,5.00,000.00,029.2,026.7,000.0,037.7,030.8,30.7,0000.0,0012.37,0004.87,0004.24
2023-06-07 20:45:00,SystemResetWarning,0828.4,5.01,000.00,029.3,027.0,000.0,037.7,030.9,29.6,0000.0,0012.35,0004.93,0004.30
2023-06-07 20:46:00,SystemResetWarning,0828.4,5.00,000.00,029.3,027.3,000.0,037.7,030.9,29.7,0000.0,0011.51,0004.99,0004.34
2023-06-07 20:47:00,SystemResetWarning,0828.4,5.00,000.00,029.3,027.6,000.0,037.7,031.0,30.8,0000.0,0011.02,0004.96,0004.37
2023-06-07 20:48:00,SystemResetWarning,0828.4,4.98,000.00,029.4,026.6,000.0,037.7,031.0,31.5,0000.0,0010.82,0004.98,0004.40
2023-06-07 20:49:00,SystemResetWarning,0828.4,5.01,000.00,029.3,024.9,000.0,037.6,030.9,31.1,0000.0,0010.60,0005.04,0004.44
2023-06-07 20:50:00,SystemResetWarning,0828.4,4.99,000.00,029.3,024.6,000.0,037.6,030.8,30.9,0000.0,0010.70,0005.08,0004.45
2023-06-07 20:51:00,SystemResetWarning,0828.4,5.01,000.00,029.2,024.9,000.0,037.6,030.6,31.2,0000.0,0010.47,0005.04,0004.44
2023-06-07 20:52:00,SystemResetWarning,0828.4,5.01,000.00,029.1,025.3,000.0,037.6,030.5,30.3,0000.0,0010.53,0005.02,0004.42
2023-06-07 20:53:00,SystemResetWarning,0828.4,5.00,000.00,029.1,025.8,000.0,037.6,030.6,30.1,0000.0,0010.66,0004.97,0004.41
2023-06-07 20:54:00,SystemResetWarning,0828.4,5.00,000.00,029.1,026.2,000.0,037.6,030.7,29.4,0000.0,0010.75,0004.95,0004.41
2023-06-07 20:55:00,SystemResetWarning,0828.4,5.01,000.00,029.1,026.6,000.0,037.6,030.7,30.1,0000.0,0009.67,0004.90,0004.40
2023-06-07 20:56:00,SystemResetWarning,0828.4,5.00,000.00,029.2,027.0,000.0,037.6,030.8,31.2,0000.0,0009.39,0004.84,0004.35
2023-06-07 20:57:00,SystemResetWarning,0828.4,4.99,000.00,029.2,027.3,000.0,037.7,030.8,30.8,0000.0,0009.52,0004.76,0004.30
2023-06-07 20:58:00,SystemResetWarning,0828.4,5.00,000.00,029.2,027.6,000.0,037.7,030.9,29.6,0000.0,0009.52,0004.72,0004.25
2023-06-07 20:59:00,SystemResetWarning,0828.4,4.99,000.00,029.3,027.6,000.0,037.7,030.9,29.3,0000.0,0009.27,0004.69,0004.24
